COSMOS 970 DEB *

Satellite information

Favourite Embed

Satellite Type and Status

DEBRISIN ORBIT

Key statistics

Satellite COSMOS 970 DEB * at a glance.

Uptime

17304

Days in orbit

Revolutions

≈ 14.3

Per day

Orbit

LEO

Low Earth Orbit

Inclination

65.7

Latest

Satellite identification and parameters

Extended collection of information and parameters for COSMOS 970 DEB *.

Object identification

Identified? True

Debris? True

Object name: COSMOS 970 DEB *

International designator: 1977-121BW

Object number (NORAD): 20032

Object ID (CCSDS): 20032

Country: COMMONWEALTH OF INDEPENDENT STATES (CIS)

Current information (Y/N): Y

RCS size: SMALL

Orbital parameters

Period: 100.577 minutes

Inclination: 65.6627 deg

SMA: 7164.064 km

Apoapsis: 1050.565 km

Periapsis: 521.294 km

RAAN: 265.9498 deg

Eccentricy: 0.0369393

Argument of periapsis: 155.7137 deg

Mean anomaly: 225.5707 deg

Mean motion: 14.31738013 rev/day

Mean motion (dot): 0.00016393 rev/day2

B* drag term: 0.0028796 1/REarth

Two-line elements (TLE)

Creation date: May 7, 2025, 3:14 a.m.

Reference frame: TEME

Reference center: EARTH

Epoch: May 6, 2025, 4:27 p.m. UTC

TLE line 0: 0 COSMOS 970 DEB *

TLE line 1: 1 20032U 77121BW 25126.68548825 .00016393 00000-0 28796-2 0 9993

TLE line 2: 2 20032 65.6627 265.9498 0369393 155.7137 225.5707 14.31738013596959

Live tracking on map

Real-time ground track for satellite COSMOS 970 DEB *.

In-orbit conjunctions

A list of the most updated potential collisions computed for object COSMOS 970 DEB *.

Target Orbit TCA Probability of collision Miss distance Type
CZ-6A DEB LEO 2024-09-21 12:33:32 0.0001508748 485.0 (m) DEBRIS

Associated space launch

Second generation ASAT satellite

COSMOS 970 DEB * was lifted into orbit during the mission ‘Tsiklon-2 | IS-A 8’, on board a Tsiklon-2 space rocket.

The launch took place on Dec. 21, 1977, 10:35 a.m. from 90.

For more information about the launch, click the button.

Launch to space Tsiklon-2 | IS-A 8
Tsiklon-2 | IS-A 8

Agency: N/A

Status: Launch Successful

Launch date: Dec. 21, 1977, 10:35 a.m. UTC

Rocket: Tsiklon-2

Launch pad: 90

Location: Baikonur Cosmodrome, Republic of Kazakhstan

...

Latest news about this satellite

There are no fresh news available about this satellite. Check back as we update our databases every day.


Newsletter sign-up

Weekly statistics, charts and insights to help you stay on top of the space industry.